DW9436 Weather Reports


Display with metric or nautical units.
time (UTC)temp
F
wind
direction
speed
MPH
gust
MPH
rain 1hr
in
rain 24hr
in
rain mn
in
humidity
%
barometer
mb
20260506180521 63 196 2.0 6.0 0.00 0.00 0.00 59 1024.6
20260506180050 62 213 2.0 6.0 0.00 0.00 0.00 58 1024.6
20260506175524 62 208 3.0 6.0 0.00 0.00 0.00 56 1024.6
20260506175028 61 225 1.0 4.0 0.00 0.00 0.00 59 1024.6
20260506174541 60 212 1.0 6.0 0.00 0.00 0.00 62 1024.6
20260506174025 60 207 1.0 6.0 0.00 0.00 0.00 65 1024.6
20260506173524 59 221 3.0 5.0 0.00 0.00 0.00 63 1024.7
20260506173051 58 0 1.0 4.0 0.00 0.00 0.00 64 1024.6
20260506172525 57 188 1.0 4.0 0.00 0.00 0.00 68 1024.6
20260506172024 56 175 2.0 4.0 0.00 0.00 0.00 78 1024.6
20260506171549 54 175 1.0 4.0 0.00 0.00 0.00 81 1024.7
20260506171023 52 175 1.0 5.0 0.00 0.00 0.00 86 1024.7
20260506170521 51 178 3.0 5.0 0.00 0.00 0.00 91 1024.8
20260506170056 49 165 3.0 5.0 0.00 0.00 0.00 95 1024.8
20260506165521 47 165 2.0 5.0 0.00 0.00 0.00 97 1024.8
20260506165021 47 165 1.0 4.0 0.00 0.00 0.00 97 1024.8
20260506164537 46 165 1.0 4.0 0.00 0.00 0.00 97 1024.9
20260506164022 45 165 1.0 5.0 0.00 0.00 0.00 97 1024.8
20260506163524 44 165 1.0 5.0 0.00 0.00 0.00 97 1025.0
20260506163055 44 165 2.0 5.0 0.00 0.00 0.00 97 1024.9
20260506162527 43 165 2.0 5.0 0.00 0.00 0.00 97 1024.9
20260506162026 43 165 3.0 5.0 0.00 0.00 0.00 97 1024.9
20260506161544 43 165 2.0 4.0 0.00 0.00 0.00 97 1024.8
20260506161023 43 169 2.0 5.0 0.00 0.00 0.00 97 1024.9
20260506160523 42 0 0.0 5.0 0.00 0.00 0.00 96 1025.0
20260506160045 42 169 2.0 5.0 0.00 0.00 0.00 96 1024.9
20260506155523 41 169 3.0 5.0 0.00 0.00 0.00 97 1024.9
20260506155021 41 172 2.0 4.0 0.00 0.00 0.00 96 1024.9
20260506154605 41 178 2.0 4.0 0.00 0.00 0.00 96 1024.9
20260506154023 41 226 1.0 3.0 0.00 0.00 0.00 96 1025.0
20260506153521 40 0 1.0 3.0 0.00 0.00 0.00 96 1024.9
20260506153043 40 0 0.0 3.0 0.00 0.00 0.00 96 1024.8
20260506152524 40 227 1.0 3.0 0.00 0.00 0.00 96 1024.8
20260506152024 40 227 1.0 3.0 0.00 0.00 0.00 96 1024.8
20260506151536 40 228 1.0 3.0 0.00 0.00 0.00 96 1024.7
20260506151024 39 228 1.0 3.0 0.00 0.00 0.00 96 1024.7
20260506150524 39 228 2.0 3.0 0.00 0.00 0.00 96 1024.7
20260506150044 39 228 1.0 2.0 0.00 0.00 0.00 96 1024.7
20260506145527 39 228 0.0 3.0 0.00 0.00 0.00 96 1024.7
20260506145024 39 228 0.0 4.0 0.00 0.00 0.00 96 1024.7
20260506144545 39 228 2.0 4.0 0.00 0.00 0.00 96 1024.7
20260506144023 39 280 1.0 3.0 0.00 0.00 0.00 96 1024.6
20260506143527 38 280 1.0 3.0 0.00 0.00 0.00 96 1024.5
20260506143053 38 0 0.0 0.0 0.00 0.00 0.00 96 1024.4
20260506142522 38 0 0.0 0.0 0.00 0.00 0.00 96 1024.5
20260506142023 38 0 0.0 2.0 0.00 0.00 0.00 96 1024.4
20260506141538 38 0 0.0 3.0 0.00 0.00 0.00 96 1024.4
20260506141024 38 282 1.0 3.0 0.00 0.00 0.00 96 1024.3
20260506140525 38 282 1.0 2.0 0.00 0.00 0.00 96 1024.2
20260506140036 37 282 1.0 2.0 0.00 0.00 0.00 96 1024.2
20260506135524 37 282 1.0 2.0 0.00 0.00 0.00 96 1024.0
20260506135023 37 282 1.0 2.0 0.00 0.00 0.00 96 1024.1
20260506134545 37 0 0.0 2.0 0.00 0.00 0.00 96 1024.1
20260506134025 37 0 0.0 2.0 0.00 0.00 0.00 96 1024.0
20260506133523 37 0 0.0 3.0 0.00 0.00 0.00 95 1023.8
20260506133042 37 282 1.0 3.0 0.00 0.00 0.00 95 1023.8
20260506132524 37 282 1.0 3.0 0.00 0.00 0.00 96 1023.8
20260506132021 37 0 0.0 0.0 0.00 0.00 0.00 96 1023.6
20260506131536 37 0 0.0 0.0 0.00 0.00 0.00 95 1023.6
20260506131023 37 0 0.0 0.0 0.00 0.00 0.00 95 1023.6
20260506130521 37 0 0.0 0.0 0.00 0.00 0.00 95 1023.4
20260506130036 37 0 0.0 0.0 0.00 0.00 0.00 95 1023.3
20260506125521 36 0 0.0 0.0 0.00 0.00 0.00 95 1023.3
20260506125026 36 0 0.0 0.0 0.00 0.00 0.00 95 1023.4
20260506124536 36 0 0.0 0.0 0.00 0.00 0.00 95 1023.3
20260506124023 36 0 0.0 1.0 0.00 0.00 0.00 95 1023.3
20260506123521 36 0 0.0 1.0 0.00 0.00 0.00 95 1023.1
20260506123044 36 0 0.0 0.0 0.00 0.00 0.00 95 1023.0
20260506122525 36 0 0.0 0.0 0.00 0.00 0.00 95 1022.9
20260506122022 36 0 0.0 0.0 0.00 0.00 0.00 95 1023.0
20260506121544 36 0 0.0 1.0 0.00 0.00 0.00 95 1022.9
20260506121024 36 0 0.0 1.0 0.00 0.00 0.00 95 1022.9
20260506120524 35 0 0.0 2.0 0.00 0.00 0.00 95 1022.7
20260506120052 35 0 0.0 2.0 0.00 0.00 0.00 95 1022.6
20260506115521 35 0 0.0 2.0 0.00 0.00 0.00 95 1022.5
20260506115021 35 0 0.0 1.0 0.00 0.00 0.00 95 1022.5
20260506114543 35 0 0.0 1.0 0.00 0.00 0.00 94 1022.5
20260506114021 35 288 0.0 1.0 0.00 0.00 0.00 95 1022.5
20260506113525 35 0 0.0 1.0 0.00 0.00 0.00 95 1022.4
20260506113044 35 0 0.0 0.0 0.00 0.00 0.00 94 1022.3
20260506112526 35 0 0.0 0.0 0.00 0.00 0.00 94 1022.2
20260506112028 35 0 0.0 0.0 0.00 0.00 0.00 94 1022.3
20260506111543 35 0 0.0 1.0 0.00 0.00 0.00 94 1022.2
20260506111023 35 0 0.0 1.0 0.00 0.00 0.00 94 1022.2
20260506110527 35 0 0.0 0.0 0.00 0.00 0.00 94 1022.2
20260506110044 35 0 0.0 1.0 0.00 0.00 0.00 94 1022.1
20260506105524 35 0 0.0 1.0 0.00 0.00 0.00 94 1022.0
20260506105021 35 0 0.0 1.0 0.00 0.00 0.00 94 1022.0
20260506104535 35 0 0.0 1.0 0.00 0.00 0.00 94 1022.0
20260506104025 35 0 0.0 0.0 0.00 0.00 0.00 94 1022.0
20260506103526 35 0 0.0 0.0 0.00 0.00 0.00 94 1021.8
20260506103035 36 0 0.0 1.0 0.00 0.00 0.00 94 1021.9
20260506102526 36 0 0.0 1.0 0.00 0.00 0.00 94 1021.6
20260506102024 36 0 0.0 1.0 0.00 0.00 0.00 94 1021.7
20260506101536 36 0 0.0 2.0 0.00 0.00 0.00 94 1021.6
20260506101023 36 0 0.0 2.0 0.00 0.00 0.00 93 1021.7
20260506100523 36 0 0.0 2.0 0.00 0.00 0.00 93 1021.5
20260506100046 36 0 0.0 2.0 0.00 0.00 0.00 93 1021.5
20260506095523 36 0 0.0 1.0 0.00 0.00 0.00 94 1021.4
20260506095023 36 288 0.0 1.0 0.00 0.00 0.00 93 1021.4
20260506094552 37 0 0.0 1.0 0.00 0.00 0.00 94 1021.4
20260506094023 37 0 0.0 0.0 0.00 0.00 0.00 94 1021.4
20260506093523 37 0 0.0 1.0 0.00 0.00 0.00 94 1021.3
20260506093037 37 0 0.0 3.0 0.00 0.00 0.00 94 1021.1
20260506092524 37 0 0.0 3.0 0.00 0.00 0.00 94 1021.0
20260506092024 37 288 1.0 3.0 0.00 0.00 0.00 94 1021.0
20260506091545 37 0 0.0 1.0 0.00 0.00 0.00 93 1021.0
20260506091024 38 0 0.0 1.0 0.00 0.00 0.00 93 1020.9
20260506090524 38 0 0.0 1.0 0.00 0.00 0.00 93 1020.9
20260506090037 38 0 0.0 2.0 0.00 0.00 0.00 93 1020.9
20260506085523 38 0 0.0 2.0 0.00 0.00 0.00 94 1020.7
20260506085023 38 0 0.0 2.0 0.00 0.00 0.00 93 1020.7
20260506084546 38 0 0.0 0.0 0.00 0.00 0.00 93 1020.7
20260506084023 38 0 0.0 0.0 0.00 0.00 0.00 93 1020.6
20260506083523 38 0 0.0 1.0 0.00 0.00 0.00 93 1020.5
20260506083041 38 0 0.0 1.0 0.00 0.00 0.00 93 1020.5
20260506082523 39 0 0.0 1.0 0.00 0.00 0.00 93 1020.5
20260506082022 39 0 0.0 1.0 0.00 0.00 0.00 93 1020.4
20260506081538 39 0 0.0 1.0 0.00 0.00 0.00 93 1020.5
20260506081024 39 0 0.0 1.0 0.00 0.00 0.00 93 1020.5
20260506080524 39 286 0.0 1.0 0.00 0.00 0.00 93 1020.5
20260506073524 40 0 0.0 2.0 0.00 0.00 0.00 92 1020.1
20260506073046 40 0 0.0 2.0 0.00 0.00 0.00 92 1020.1
20260506072523 40 286 0.0 2.0 0.00 0.00 0.00 93 1020.1
20260506072022 40 286 0.0 2.0 0.00 0.00 0.00 92 1020.0
20260506071540 41 286 0.0 2.0 0.00 0.00 0.00 92 1019.8
20260506071022 41 0 0.0 0.0 0.00 0.00 0.00 92 1019.8
20260506070524 41 0 0.0 0.0 0.00 0.00 0.00 91 1019.8
20260506062024 44 0 0.0 0.0 0.00 0.00 0.00 90 1019.3
20260506061543 44 0 0.0 0.0 0.00 0.00 0.00 90 1019.2
20260506061028 44 0 0.0 0.0 0.00 0.00 0.00 89 1019.2
20260506060522 44 0 0.0 0.0 0.00 0.00 0.00 89 1019.1
20260506051024 48 0 1.0 2.0 0.00 0.04 0.00 86 1018.6
20260506050523 48 286 0.0 2.0 0.00 0.04 0.00 86 1018.4
20260506045023 49 0 0.0 1.0 0.00 0.15 0.00 84 1018.3
20260506044546 49 0 0.0 1.0 0.00 0.15 0.00 84 1018.2
20260506044021 50 0 0.0 1.0 0.00 0.15 0.00 84 1018.2
20260506043529 50 286 0.0 1.0 0.00 0.15 0.00 84 1018.0
20260506043039 50 0 0.0 2.0 0.00 0.15 0.00 83 1018.0
20260506042523 50 0 0.0 2.0 0.00 0.15 0.00 83 1018.0
20260506042023 50 0 0.0 3.0 0.00 0.15 0.00 82 1018.0
20260506041536 50 286 1.0 3.0 0.00 0.15 0.00 81 1017.9
20260506041023 50 0 0.0 2.0 0.00 0.15 0.00 82 1017.8
20260506040523 50 286 0.0 2.0 0.00 0.15 0.00 81 1017.8
20260506040058 50 0 0.0 2.0 0.00 0.15 0.00 81 1017.5
20260506035523 51 0 0.0 2.0 0.00 0.31 0.00 80 1017.5
20260506035024 51 287 0.0 2.0 0.00 0.31 0.00 79 1017.5
20260506034548 51 0 1.0 2.0 0.00 0.31 0.00 78 1017.4
20260506034024 52 0 0.0 2.0 0.00 0.31 0.00 78 1017.3
20260506033523 52 287 1.0 2.0 0.00 0.31 0.00 78 1017.0
20260506033042 52 0 0.0 2.0 0.00 0.31 0.00 77 1016.9
20260506032523 53 0 0.0 2.0 0.00 0.31 0.00 76 1016.7
20260506032023 53 0 0.0 3.0 0.00 0.31 0.00 75 1016.7
20260506031552 54 0 1.0 3.0 0.00 0.31 0.00 74 1016.5
20260506031025 54 287 1.0 3.0 0.00 0.31 0.00 74 1016.5
20260506030522 55 287 1.0 3.0 0.00 0.31 0.00 72 1016.3
20260506030044 56 286 0.0 2.0 0.00 0.31 0.00 70 1016.2
20260506025522 56 0 0.0 3.0 0.00 0.44 0.00 69 1016.1
20260506025022 56 280 0.0 3.0 0.00 0.44 0.00 69 1016.1
20260506024546 57 280 0.0 3.0 0.00 0.44 0.00 68 1016.1
20260506024023 57 0 0.0 2.0 0.00 0.44 0.00 68 1016.0
20260506023523 58 0 0.0 2.0 0.00 0.44 0.00 67 1016.0
20260506023042 58 0 0.0 2.0 0.00 0.44 0.00 67 1016.0
20260506022526 58 0 0.0 2.0 0.00 0.44 0.00 65 1015.8
20260506022023 59 0 0.0 2.0 0.00 0.44 0.00 65 1015.6
20260506021540 59 0 1.0 2.0 0.00 0.44 0.00 63 1015.5
20260506021022 59 0 0.0 2.0 0.00 0.44 0.00 62 1015.6
20260506020523 60 315 0.0 3.0 0.00 0.44 0.00 62 1015.4
20260506020038 60 300 0.0 3.0 0.00 0.44 0.00 61 1015.4
20260506015526 60 0 0.0 5.0 0.00 0.69 0.00 62 1015.3
20260506015023 61 222 1.0 5.0 0.00 0.69 0.00 61 1015.3
20260506014541 61 244 1.0 5.0 0.00 0.69 0.00 60 1015.4
20260506014023 61 267 0.0 4.0 0.00 0.69 0.00 62 1015.2
20260506013525 61 232 1.0 4.0 0.00 0.69 0.00 60 1015.2
20260506013045 62 37 1.0 4.0 0.00 0.69 0.00 60 1015.2
20260506012524 62 223 1.0 4.0 0.00 0.69 0.00 55 1015.1
20260506012025 62 216 0.0 2.0 0.00 0.69 0.00 56 1015.2
20260506011540 62 0 0.0 3.0 0.00 0.69 0.00 54 1015.2
20260506011023 62 0 0.0 4.0 0.00 0.69 0.00 53 1015.1
20260506010522 62 203 1.0 4.0 0.00 0.69 0.00 49 1015.0
20260506010043 62 180 1.0 4.0 0.00 0.69 0.00 51 1015.0
20260506005526 61 209 1.0 4.0 0.00 0.70 0.00 54 1015.0
20260506005025 60 0 0.0 1.0 0.00 0.70 0.00 56 1015.1
20260506004548 61 0 0.0 3.0 0.00 0.70 0.00 56 1015.2
20260506004029 61 0 0.0 3.0 0.00 0.70 0.00 56 1015.0
20260506003524 62 188 0.0 3.0 0.00 0.70 0.00 50 1014.9
20260506003045 62 0 0.0 2.0 0.00 0.70 0.00 54 1015.0
20260506002522 62 0 0.0 2.0 0.00 0.70 0.00 55 1015.0
20260506002023 62 0 0.0 2.0 0.00 0.70 0.00 54 1015.0
20260506001544 62 205 0.0 3.0 0.00 0.70 0.00 50 1015.0
20260506001023 63 205 0.0 3.0 0.00 0.70 0.00 53 1015.0
20260506000523 62 286 0.0 3.0 0.00 0.70 0.00 53 1015.0
20260506000044 62 0 0.0 3.0 0.00 0.70 0.00 53 1015.0
20260505235525 62 48 0.0 3.0 0.00 0.70 0.00 51 1015.0
20260505235023 62 0 0.0 7.0 0.00 0.70 0.00 51 1015.0
20260505234550 63 46 1.0 8.0 0.00 0.70 0.00 47 1014.9
20260505234026 64 42 2.0 8.0 0.00 0.70 0.00 49 1014.9
20260505233526 64 144 2.0 5.0 0.00 0.70 0.00 47 1014.9
20260505233050 65 140 2.0 7.0 0.00 0.70 0.00 44 1014.9
20260505232523 65 122 3.0 9.0 0.00 0.70 0.00 44 1015.0
20260505232026 66 72 1.0 9.0 0.00 0.70 0.00 47 1015.0
20260505231557 67 117 2.0 8.0 0.00 0.70 0.00 44 1015.0
20260505231024 67 323 2.0 6.0 0.00 0.70 0.00 45 1014.9
20260505230523 67 360 2.0 5.0 0.00 0.70 0.00 46 1015.0
20260505230044 66 194 2.0 7.0 0.00 0.70 0.00 45 1015.0
20260505225527 66 155 2.0 9.0 0.00 0.70 0.00 49 1015.1
20260505225026 65 164 2.0 9.0 0.00 0.70 0.00 48 1015.0
20260505224544 65 134 4.0 9.0 0.00 0.70 0.00 45 1015.1
20260505224026 64 141 2.0 11.0 0.00 0.70 0.00 51 1015.2
20260505223529 65 225 6.0 11.0 0.00 0.70 0.00 44 1015.3
20260505223049 65 145 2.0 7.0 0.00 0.70 0.00 46 1015.3
20260505222530 65 140 3.0 7.0 0.00 0.70 0.00 48 1015.4
20260505222026 65 168 3.0 8.0 0.00 0.70 0.00 46 1015.4
20260505221536 65 17 3.0 9.0 0.00 0.70 0.00 49 1015.4
20260505221022 64 202 3.0 9.0 0.00 0.70 0.00 50 1015.4
20260505220525 64 155 3.0 9.0 0.00 0.70 0.00 46 1015.6
20260505220044 64 183 3.0 9.0 0.00 0.70 0.00 48 1015.6
20260505215523 64 172 3.0 8.0 0.00 0.72 0.00 51 1015.6
20260505215023 64 147 3.0 10.0 0.00 0.72 0.00 50 1015.6
20260505214549 63 93 3.0 10.0 0.00 0.72 0.00 53 1015.6
20260505214027 63 165 4.0 9.0 0.00 0.72 0.00 51 1015.7
20260505213523 63 271 3.0 8.0 0.00 0.72 0.00 52 1015.8
20260505213042 63 109 3.0 8.0 0.00 0.72 0.00 52 1015.7
20260505212523 63 113 3.0 8.0 0.00 0.72 0.00 58 1015.8
20260505212024 62 96 4.0 9.0 0.00 0.72 0.00 58 1015.7
20260505211537 61 126 2.0 11.0 0.00 0.72 0.00 55 1015.9
20260505211026 62 134 3.0 11.0 0.00 0.72 0.00 56 1015.8
20260505210522 62 108 3.0 11.0 0.00 0.72 0.00 62 1015.8
20260505210045 61 55 5.0 11.0 0.00 0.72 0.00 58 1015.8
20260505205530 61 178 4.0 9.0 0.00 0.81 0.00 65 1015.8
20260505205027 60 163 5.0 9.0 0.00 0.81 0.00 60 1015.9
20260505204546 60 192 4.0 9.0 0.00 0.81 0.00 63 1015.9
20260505204029 60 102 4.0 9.0 0.00 0.81 0.00 63 1015.7
20260505203522 60 129 3.0 9.0 0.00 0.81 0.00 66 1015.8
20260505203047 59 153 2.0 9.0 0.00 0.81 0.00 65 1015.8
20260505202522 58 180 3.0 7.0 0.00 0.81 0.00 65 1015.8
20260505202025 57 0 1.0 4.0 0.00 0.81 0.00 68 1015.9
20260505201538 57 117 0.0 8.0 0.00 0.81 0.00 71 1015.9
20260505201023 57 116 2.0 8.0 0.00 0.81 0.00 72 1015.9
20260505200522 56 186 3.0 8.0 0.00 0.81 0.00 73 1015.9
20260505200042 55 144 3.0 8.0 0.00 0.81 0.00 73 1015.9
20260505195525 55 134 4.0 8.0 0.00 0.81 0.00 73 1016.1
20260505195022 55 138 4.0 7.0 0.00 0.81 0.00 73 1016.2
20260505194538 54 157 3.0 7.0 0.00 0.81 0.00 74 1016.2
20260505194023 54 157 2.0 7.0 0.00 0.81 0.00 79 1016.2
20260505193523 54 142 2.0 7.0 0.00 0.81 0.00 79 1016.2
20260505193042 54 166 2.0 7.0 0.00 0.81 0.00 80 1016.2
20260505192526 53 134 3.0 8.0 0.00 0.81 0.00 78 1016.2
20260505192022 53 154 4.0 8.0 0.00 0.81 0.00 82 1016.2
20260505191542 51 159 3.0 7.0 0.00 0.81 0.00 85 1016.2
20260505191021 51 131 3.0 7.0 0.00 0.81 0.00 83 1016.2
20260505190522 50 157 3.0 5.0 0.00 0.81 0.00 84 1016.3
20260505190043 50 132 2.0 4.0 0.00 0.81 0.00 86 1016.3
20260505185526 49 134 1.0 4.0 0.00 0.82 0.00 89 1016.3
20260505185023 48 134 2.0 4.0 0.00 0.82 0.00 89 1016.3
20260505184535 48 136 1.0 5.0 0.00 0.82 0.00 89 1016.2
20260505184023 47 135 3.0 5.0 0.00 0.82 0.00 89 1016.2
20260505183523 47 130 1.0 4.0 0.00 0.82 0.00 90 1016.2
20260505183045 47 130 1.0 4.0 0.00 0.82 0.00 88 1016.2
20260505182526 47 130 1.0 5.0 0.00 0.82 0.00 90 1016.2
20260505182022 46 132 2.0 7.0 0.00 0.82 0.00 91 1016.1
20260505181550 46 128 3.0 7.0 0.00 0.82 0.00 89 1016.1
20260505181022 46 136 4.0 7.0 0.00 0.82 0.00 90 1016.1